Regional Weather Roundup
Issued by NWS Charleston, WV

Home | Current Version | Previous Version | Graphics & Text | Print | Product List | Glossary On
Versions: 1 2 3 4 5 6 7 8 9 10 11 12 13 14 15 16 17 18 19 20 21 22 23 24 25 26 27 28 29 30 31 32 33 34 35 36 37 38 39 40 41 42 43 44 45 46 47 48 49 50
362
ASUS41 KRLX 191510
RWRRLX
West Virginia Regional Weather Roundup
National Weather Service Charleston WV
1100 AM EDT WED JUL 19 2017

Note: "fair" indicates few or no clouds below 12,000 feet with no
significant weather and/or obstructions to visibility.

WVZ003-191600-
Northern Panhandle of West Virginia

CITY           SKY/WX    TMP DP  RH WIND       PRES   REMARKS
WHEELING       SUNNY     83  70  64 SW6       30.13S
$$

WVZ009-191600-
Northwest West Virginia

CITY           SKY/WX    TMP DP  RH WIND       PRES   REMARKS
PARKERSBURG    MOSUNNY   84  71  65 VRB3      30.15S
$$

WVZ006-191600-
Western West Virginia

CITY           SKY/WX    TMP DP  RH WIND       PRES   REMARKS
HUNTINGTON     SUNNY     85  72  65 S6        30.13S
$$

WVZ015-191600-
West Central West Virginia

CITY           SKY/WX    TMP DP  RH WIND       PRES   REMARKS
CHARLESTON     SUNNY     84  68  58 W5        30.15S
$$

WVZ022-031-191600-
North Central West Virginia

CITY           SKY/WX    TMP DP  RH WIND       PRES   REMARKS
CLARKSBURG     SUNNY     81  67  62 VRB3      30.15S
MORGANTOWN     SUNNY     83  67  58 VRB3      30.16R
$$

WVZ025-035-042-045-191600-
Southern West Virginia

CITY           SKY/WX    TMP DP  RH WIND       PRES   REMARKS
BECKLEY        MOSUNNY   81  65  58 N5        30.24S
LOGAN            N/A     81  70  69 CALM      30.19S
BLUEFIELD      MOSUNNY   77  65  66 VRB5      30.27R
LEWISBURG      PTSUNNY   68  63  85 CALM      30.23F
$$

WVZ047-191600-
Northern Mountains of West Virginia

CITY           SKY/WX    TMP DP  RH WIND       PRES   REMARKS
ELKINS         SUNNY     79  65  62 CALM      30.21S
$$

WVZ052-191600-
Eastern Panhandle of West Virginia

CITY           SKY/WX    TMP DP  RH WIND       PRES   REMARKS
MARTINSBURG    SUNNY     84  68  58 CALM      30.11S
PETERSBURG     SUNNY     83  69  62 CALM      30.14F
$$




USA.gov is the U.S. government's official web portal to all federal, state and local government web resources and services.